DELTA 1 DEB, 10829

Orbit data source: Space-Track

DELTA 1 DEB, 10829 is space debris in SSO originally from a launch on Thu, 29 Jul 1976 UTC launched from the Air Force Western Test Range (AFWTR). Debris objects in space refer to the collection of defunct objects orbiting the Earth. Examples of debris include non-operational satellites, rocket bodies, and fragments generated from explosions, collisions, or faulty payload assembly.

Loading next visibility...
Identifier
10829, 1976-077BZ
Orbit
SSO
Country
Flag of USUS
Related business
Manufacturer
Unknown
Mission
Spacecraft
Bus & Motor
Unknown
Mass
Unknown
Launch date (UTC)
1976-07-29 (49 years ago)
Launch vehicle
Unknown
Launch site
Air Force Western Test Range (AFWTR)
Object type
Payload
Rocket body
Debris
Shape & HBR
Unknown shape, 0.1 m
Radar Cross Section
Small (<0.1 m²)

Expand to show TLE details & history
Last TLE update: 1 week ago

TLE from 1 week ago
0 DELTA 1 DEB
1 10829U 76077BZ  25335.38309530 -.00000014  00000-0  22081-3 0  9998
2 10829 101.7523 295.8533 0039162 117.9400  35.6231 12.36708175224681
Epoch: 2025-12-01T09:11Z
TLE epoch observation values (Epoch: 2025-12-01T09:11:39.433Z)
Latitude
25.61689°
Longitude
-86.84759°
Altitude
1,498.275 km
Speed
7.129 km/s
True Right ascension
08h 06m 12s
True Declination
25° 29' 44"
Sunlit
Object was in full shadow at epoch
Visualization orbit readout
Latitude
Unknown
Longitude
Unknown
Altitude
Unknown
Speed
Unknown
Apparent Right ascension
Unknown
Apparent Declination
Unknown
Sunlit
N/A
Visualization observer readout
Local Sidereal Time
20:29:00
Azimuth
Unknown
Elevation
Unknown
Doppler factor
Unknown
Orbital elements
Apogee altitude
1,549.076 km
Perigee altitude
1,487.229 km
Semi-major axis
7,896.29 km
Eccentricity
0.00392
Inclination
101.7523°
RAAN
295.8533°
Arg. of periapsis
117.94°
True anomaly
35.88553°
Mean anomaly
35.6231°
Eccentric anomaly
35.75421°
Mean motion
3.0932 °/min
Orbital period
116.38 mins
BSTAR
0.00022081
Loading maneuver chart data...
Computing Atmospheric mass density...
Loading historical data...
Loading historical data...
Loading historical data...
Loading historical data...
Loading historical data...
Loading historical data...
Loading historical data...

Documentation

Showing up to 5 results
|